Location: Brookfield Center
(41.2406°N, 80.5579°W)
Time: 09:14:12
(UTC+00:00)

USA 32 - Pass Details

Date: 18 January 2020
Orbit: 777 x 783 km, 85.0° (Epoch: 29 January)

Event Time Altitude Azimuth Distance (km) Brightness Sun altitude
Rises 11:30:24 0° 353° (N) 3,270 7.0 -13.8°
Reaches altitude 10° 11:32:46 10° 352° (N) 2,338 6.3 -13.4°
Maximum altitude 11:37:59 74° 268° (W) 814 4.0 -12.4°
Drops below altitude 10° 11:43:11 10° 184° (S) 2,325 6.7 -11.5°
Sets 11:45:32 0° 183° (S) 3,250 7.5 -11.1°
